Time,TemperatureF,DewpointF,PressureIn,WindDirection,WindDirectionDegrees,WindSpeedMPH,WindSpeedGustMPH,Humidity,HourlyPrecipIn,Conditions,Clouds,dailyrainin,SoftwareType,DateUTC
2013-10-16 00:00:00,57.0,57.0,30.18,East,100,5.0,5.0,99,-99.99,,,-99.99,,2013-10-16 04:00:00,
2013-10-16 00:24:00,57.0,57.0,30.18,East,100,5.0,5.0,99,-99.99,,,-99.99,,2013-10-16 04:24:00,
2013-10-16 00:33:00,57.0,57.0,30.18,East,100,5.0,5.0,99,-99.99,,,-99.99,,2013-10-16 04:33:00,
2013-10-16 00:43:00,57.0,57.0,30.18,East,100,5.0,5.0,99,-99.99,,,-99.99,,2013-10-16 04:43:00,
2013-10-16 00:53:00,57.0,57.0,30.18,East,100,5.0,5.0,99,-99.99,,,-99.99,,2013-10-16 04:53:00,
2013-10-16 01:00:00,57.0,57.0,30.16,ESE,110,7.0,8.0,99,-99.99,,,-99.99,,2013-10-16 05:00:00,
2013-10-16 01:22:00,57.0,57.0,30.16,ESE,110,7.0,8.0,99,-99.99,,,-99.99,,2013-10-16 05:22:00,
2013-10-16 01:34:00,57.0,57.0,30.16,ESE,110,7.0,8.0,99,-99.99,,,-99.99,,2013-10-16 05:34:00,
2013-10-16 01:43:00,57.0,57.0,30.16,ESE,110,7.0,8.0,99,-99.99,,,-99.99,,2013-10-16 05:43:00,
2013-10-16 01:52:00,57.0,57.0,30.16,ESE,110,7.0,8.0,99,-99.99,,,-99.99,,2013-10-16 05:52:00,
2013-10-16 02:00:00,56.0,56.0,30.14,ESE,110,9.0,10.0,98,-99.99,,,-99.99,,2013-10-16 06:00:00,
2013-10-16 02:22:00,56.0,56.0,30.14,ESE,110,9.0,10.0,98,-99.99,,,-99.99,,2013-10-16 06:22:00,
2013-10-16 02:33:00,56.0,56.0,30.14,ESE,110,9.0,10.0,98,-99.99,,,-99.99,,2013-10-16 06:33:00,
2013-10-16 02:42:00,56.0,56.0,30.14,ESE,110,9.0,10.0,98,-99.99,,,-99.99,,2013-10-16 06:42:00,
2013-10-16 02:52:00,56.0,56.0,30.14,ESE,110,9.0,10.0,98,-99.99,,,-99.99,,2013-10-16 06:52:00,
2013-10-16 03:00:00,56.0,56.0,30.14,East,100,7.0,8.0,99,-99.99,,,-99.99,,2013-10-16 07:00:00,
2013-10-16 03:21:00,56.0,56.0,30.14,East,100,7.0,8.0,99,-99.99,,,-99.99,,2013-10-16 07:21:00,
2013-10-16 03:31:00,56.0,56.0,30.14,East,100,7.0,8.0,99,-99.99,,,-99.99,,2013-10-16 07:31:00,
2013-10-16 03:42:00,56.0,56.0,30.14,East,100,7.0,8.0,99,-99.99,,,-99.99,,2013-10-16 07:42:00,
2013-10-16 03:52:00,56.0,56.0,30.14,East,100,7.0,8.0,99,-99.99,,,-99.99,,2013-10-16 07:52:00,
2013-10-16 04:00:00,56.0,55.0,30.15,East,90,6.0,6.0,96,-99.99,,,-99.99,,2013-10-16 08:00:00,
2013-10-16 04:41:00,56.0,55.0,30.15,East,90,6.0,6.0,96,-99.99,,,-99.99,,2013-10-16 08:41:00,
2013-10-16 04:52:00,56.0,55.0,30.15,East,90,6.0,6.0,96,-99.99,,,-99.99,,2013-10-16 08:52:00,
2013-10-16 05:00:00,56.0,55.0,30.15,ENE,60,3.0,5.0,94,-99.99,,,-99.99,,2013-10-16 09:00:00,
2013-10-16 05:22:00,56.0,55.0,30.15,ENE,60,3.0,5.0,94,-99.99,,,-99.99,,2013-10-16 09:22:00,
2013-10-16 05:33:00,56.0,55.0,30.15,ENE,60,3.0,5.0,94,-99.99,,,-99.99,,2013-10-16 09:33:00,
2013-10-16 05:43:00,56.0,55.0,30.15,ENE,60,3.0,5.0,94,-99.99,,,-99.99,,2013-10-16 09:43:00,
2013-10-16 05:53:00,56.0,55.0,30.15,ENE,60,3.0,5.0,94,-99.99,,,-99.99,,2013-10-16 09:53:00,
2013-10-16 06:00:00,56.0,54.0,30.11,ENE,70,10.0,10.0,94,-99.99,,,-99.99,,2013-10-16 10:00:00,
2013-10-16 06:22:00,56.0,54.0,30.11,ENE,70,10.0,10.0,94,-99.99,,,-99.99,,2013-10-16 10:22:00,
2013-10-16 06:32:00,56.0,54.0,30.11,ENE,70,10.0,10.0,94,-99.99,,,-99.99,,2013-10-16 10:32:00,
2013-10-16 06:42:00,56.0,54.0,30.11,ENE,70,10.0,10.0,94,-99.99,,,-99.99,,2013-10-16 10:42:00,
2013-10-16 06:53:00,56.0,54.0,30.11,ENE,70,10.0,10.0,94,-99.99,,,-99.99,,2013-10-16 10:53:00,
2013-10-16 07:00:00,56.0,55.0,30.10,ENE,60,11.0,13.0,96,-99.99,,,-99.99,,2013-10-16 11:00:00,
2013-10-16 07:42:00,56.0,55.0,30.10,ENE,60,11.0,13.0,96,-99.99,,,-99.99,,2013-10-16 11:42:00,
2013-10-16 07:52:00,56.0,55.0,30.10,ENE,60,11.0,13.0,96,-99.99,,,-99.99,,2013-10-16 11:52:00,
2013-10-16 08:00:00,55.0,55.0,30.13,ENE,70,11.0,13.0,97,-99.99,,,-99.99,,2013-10-16 12:00:00,
2013-10-16 08:21:00,55.0,55.0,30.13,ENE,70,11.0,13.0,97,-99.99,,,-99.99,,2013-10-16 12:21:00,
2013-10-16 08:32:00,55.0,55.0,30.13,ENE,70,11.0,13.0,97,-99.99,,,-99.99,,2013-10-16 12:32:00,
2013-10-16 08:42:00,55.0,55.0,30.13,ENE,70,11.0,13.0,97,-99.99,,,-99.99,,2013-10-16 12:42:00,
2013-10-16 08:52:00,55.0,55.0,30.13,ENE,70,11.0,13.0,97,-99.99,,,-99.99,,2013-10-16 12:52:00,
2013-10-16 09:00:00,56.0,53.0,30.11,East,80,11.0,13.0,89,-99.99,,,-99.99,,2013-10-16 13:00:00,
2013-10-16 09:42:00,56.0,53.0,30.11,East,80,11.0,13.0,89,-99.99,,,-99.99,,2013-10-16 13:42:00,
2013-10-16 09:52:00,56.0,53.0,30.11,East,80,11.0,13.0,89,-99.99,,,-99.99,,2013-10-16 13:52:00,
2013-10-16 10:00:00,55.0,54.0,30.09,East,80,11.0,13.0,95,-99.99,,,-99.99,,2013-10-16 14:00:00,
2013-10-16 10:22:00,55.0,54.0,30.09,East,80,11.0,13.0,95,-99.99,,,-99.99,,2013-10-16 14:22:00,
2013-10-16 10:31:00,55.0,54.0,30.09,East,80,11.0,13.0,95,-99.99,,,-99.99,,2013-10-16 14:31:00,
2013-10-16 10:41:00,55.0,54.0,30.09,East,80,11.0,13.0,95,-99.99,,,-99.99,,2013-10-16 14:41:00,
2013-10-16 10:52:00,55.0,54.0,30.09,East,80,11.0,13.0,95,-99.99,,,-99.99,,2013-10-16 14:52:00,
2013-10-16 11:00:00,55.0,55.0,30.08,NE,50,7.0,8.0,98,-99.99,,,-99.99,,2013-10-16 15:00:00,
2013-10-16 11:43:00,55.0,55.0,30.08,NE,50,7.0,8.0,98,-99.99,,,-99.99,,2013-10-16 15:43:00,
2013-10-16 11:53:00,55.0,55.0,30.08,NE,50,7.0,8.0,98,-99.99,,,-99.99,,2013-10-16 15:53:00,
2013-10-16 12:00:00,56.0,55.0,30.07,North,10,8.0,9.0,98,-99.99,,,-99.99,,2013-10-16 16:00:00,
2013-10-16 12:42:00,56.0,55.0,30.07,North,10,8.0,9.0,98,-99.99,,,-99.99,,2013-10-16 16:42:00,
2013-10-16 12:53:00,56.0,55.0,30.07,North,10,8.0,9.0,98,-99.99,,,-99.99,,2013-10-16 16:53:00,
2013-10-16 13:00:00,55.0,55.0,30.03,NNE,30,13.0,14.0,99,-99.99,,,-99.99,,2013-10-16 17:00:00,
2013-10-16 13:42:00,55.0,55.0,30.03,NNE,30,13.0,14.0,99,-99.99,,,-99.99,,2013-10-16 17:42:00,
2013-10-16 13:52:00,55.0,55.0,30.03,NNE,30,13.0,14.0,99,-99.99,,,-99.99,,2013-10-16 17:52:00,
2013-10-16 14:00:00,55.0,55.0,30.01,NNE,20,11.0,13.0,99,-99.99,,,-99.99,,2013-10-16 18:00:00,
2013-10-16 14:42:00,55.0,55.0,30.01,NNE,20,11.0,13.0,99,-99.99,,,-99.99,,2013-10-16 18:42:00,
2013-10-16 14:52:00,55.0,55.0,30.01,NNE,20,11.0,13.0,99,-99.99,,,-99.99,,2013-10-16 18:52:00,
2013-10-16 15:00:00,55.0,55.0,30.00,North,10,10.0,11.0,99,-99.99,,,-99.99,,2013-10-16 19:00:00,
2013-10-16 15:21:00,55.0,55.0,30.00,North,10,10.0,11.0,99,-99.99,,,-99.99,,2013-10-16 19:21:00,
2013-10-16 15:32:00,55.0,55.0,30.00,North,10,10.0,11.0,99,-99.99,,,-99.99,,2013-10-16 19:32:00,
2013-10-16 15:42:00,55.0,55.0,30.00,North,10,10.0,11.0,99,-99.99,,,-99.99,,2013-10-16 19:42:00,
2013-10-16 15:52:00,55.0,55.0,30.00,North,10,10.0,11.0,99,-99.99,,,-99.99,,2013-10-16 19:52:00,
2013-10-16 16:00:00,55.0,55.0,29.98,NNE,20,11.0,14.0,99,-99.99,,,-99.99,,2013-10-16 20:00:00,
2013-10-16 16:22:00,55.0,55.0,29.98,NNE,20,11.0,14.0,99,-99.99,,,-99.99,,2013-10-16 20:22:00,
2013-10-16 16:32:00,55.0,55.0,29.98,NNE,20,11.0,14.0,99,-99.99,,,-99.99,,2013-10-16 20:32:00,
2013-10-16 16:43:00,55.0,55.0,29.98,NNE,20,11.0,14.0,99,-99.99,,,-99.99,,2013-10-16 20:43:00,
2013-10-16 16:52:00,55.0,55.0,29.98,NNE,20,11.0,14.0,99,-99.99,,,-99.99,,2013-10-16 20:52:00,
2013-10-16 17:00:00,55.0,55.0,29.98,NNE,30,10.0,11.0,99,-99.99,,,-99.99,,2013-10-16 21:00:00,
2013-10-16 17:23:00,55.0,55.0,29.98,NNE,30,10.0,11.0,99,-99.99,,,-99.99,,2013-10-16 21:23:00,
2013-10-16 17:33:00,55.0,55.0,29.98,NNE,30,10.0,11.0,99,-99.99,,,-99.99,,2013-10-16 21:33:00,
2013-10-16 17:44:00,55.0,55.0,29.98,NNE,30,10.0,11.0,99,-99.99,,,-99.99,,2013-10-16 21:44:00,
2013-10-16 17:54:00,55.0,55.0,29.98,NNE,30,10.0,11.0,99,-99.99,,,-99.99,,2013-10-16 21:54:00,
2013-10-16 18:00:00,55.0,55.0,29.96,NE,50,10.0,11.0,100,-99.99,,,-99.99,,2013-10-16 22:00:00,
2013-10-16 18:42:00,55.0,55.0,29.96,NE,50,10.0,11.0,100,-99.99,,,-99.99,,2013-10-16 22:42:00,
2013-10-16 18:54:00,55.0,55.0,29.96,NE,50,10.0,11.0,100,-99.99,,,-99.99,,2013-10-16 22:54:00,
2013-10-16 19:00:00,55.0,55.0,29.96,NNE,20,6.0,7.0,100,-99.99,,,-99.99,,2013-10-16 23:00:00,
2013-10-16 19:22:00,55.0,55.0,29.96,NNE,20,6.0,7.0,100,-99.99,,,-99.99,,2013-10-16 23:22:00,
2013-10-16 19:34:00,55.0,55.0,29.96,NNE,20,6.0,7.0,100,-99.99,,,-99.99,,2013-10-16 23:34:00,
2013-10-16 19:42:00,55.0,55.0,29.96,NNE,20,6.0,7.0,100,-99.99,,,-99.99,,2013-10-16 23:42:00,
2013-10-16 19:52:00,55.0,55.0,29.96,NNE,20,6.0,7.0,100,-99.99,,,-99.99,,2013-10-16 23:52:00,
2013-10-16 20:00:00,55.0,55.0,29.96,NE,50,5.0,6.0,100,-99.99,,,-99.99,,2013-10-17 00:00:00,
2013-10-16 20:42:00,55.0,55.0,29.96,NE,50,5.0,6.0,100,-99.99,,,-99.99,,2013-10-17 00:42:00,
2013-10-16 20:52:00,55.0,55.0,29.96,NE,50,5.0,6.0,100,-99.99,,,-99.99,,2013-10-17 00:52:00,
2013-10-16 21:00:00,55.0,55.0,29.94,NE,50,6.0,7.0,100,-99.99,,,-99.99,,2013-10-17 01:00:00,
2013-10-16 21:42:00,55.0,55.0,29.94,NE,50,6.0,7.0,100,-99.99,,,-99.99,,2013-10-17 01:42:00,
2013-10-16 21:52:00,55.0,55.0,29.94,NE,50,6.0,7.0,100,-99.99,,,-99.99,,2013-10-17 01:52:00,
2013-10-16 22:00:00,55.0,55.0,29.92,East,90,7.0,8.0,100,-99.99,,,-99.99,,2013-10-17 02:00:00,
2013-10-16 22:21:00,55.0,55.0,29.92,East,90,7.0,8.0,100,-99.99,,,-99.99,,2013-10-17 02:21:00,
2013-10-16 22:31:00,55.0,55.0,29.92,East,90,7.0,8.0,100,-99.99,,,-99.99,,2013-10-17 02:31:00,
2013-10-16 22:42:00,55.0,55.0,29.92,East,90,7.0,8.0,100,-99.99,,,-99.99,,2013-10-17 02:42:00,
2013-10-16 22:53:00,55.0,55.0,29.92,East,90,7.0,8.0,100,-99.99,,,-99.99,,2013-10-17 02:53:00,
2013-10-16 23:00:00,54.0,54.0,29.91,ESE,120,1.0,2.0,100,-99.99,,,-99.99,,2013-10-17 03:00:00,
2013-10-16 23:22:00,54.0,54.0,29.91,ESE,120,1.0,2.0,100,-99.99,,,-99.99,,2013-10-17 03:22:00,
2013-10-16 23:34:00,54.0,54.0,29.91,ESE,120,1.0,2.0,100,-99.99,,,-99.99,,2013-10-17 03:34:00,
2013-10-16 23:44:00,54.0,54.0,29.91,ESE,120,1.0,2.0,100,-99.99,,,-99.99,,2013-10-17 03:44:00,
2013-10-16 23:54:00,54.0,54.0,29.91,ESE,120,1.0,2.0,100,-99.99,,,-99.99,,2013-10-17 03:54:00,